QPF
0.04 0.04 0.03 0.03 0.02 0.03 0.03 0.05 0.07 0.06 0.06 0.05 0.04 0.03 0.03 0.04 0.03 0.02 0.02 0.01 0.00 0.00 0.00 0.00 0.00 0.00 0.00 0.01 0.01 0.01 0.02 0.02 0.03 0.04 0.04 0.04 0.04 0.04
0.04 0.03 0.02 0.02 0.02 0.02 0.02 0.03 0.04 0.05 0.05 0.03 0.02 0.02 0.02 0.02 0.03 0.03 0.03 0.02 0.01 0.00 0.00 0.00 0.00 0.00 0.01 0.01 0.00 0.01 0.01 0.01 0.01 0.03 0.04 0.04 0.04 0.03
0.04 0.03 0.02 0.02 0.03 0.02 0.03 0.03 0.03 0.04 0.05 0.03 0.02 0.02 0.02 0.01 0.02 0.03 0.03 0.02 0.01 0.00 0.00 0.00 0.00 0.00 0.01 0.01 0.01 0.01 0.01 0.01 0.01 0.02 0.03 0.04 0.04 0.04
0.04 0.04 0.03 0.03 0.03 0.03 0.04 0.04 0.04 0.05 0.05 0.03 0.03 0.03 0.02 0.02 0.02 0.02 0.02 0.02 0.01 0.00 0.00 0.00 0.00 0.00 0.00 0.00 0.01 0.01 0.01 0.01 0.02 0.03 0.03 0.04 0.03 0.03
0.02 0.03 0.03 0.03 0.03 0.03 0.03 0.04 0.05 0.05 0.06 0.04 0.03 0.03 0.02 0.02 0.02 0.02 0.02 0.03 0.01 0.00 0.00 0.01 0.00 0.00 0.00 0.00 0.00 0.00 0.01 0.01 0.01 0.02 0.03 0.03 0.03 0.03
0.02 0.02 0.02 0.02 0.02 0.02 0.03 0.04 0.06 0.06 0.05 0.05 0.03 0.03 0.02 0.02 0.02 0.02 0.03 0.04 0.02 0.01 0.01 0.00 0.00 0.00 0.00 0.00 0.00 0.00 0.00 0.01 0.01 0.01 0.01 0.02 0.02 0.02
0.02 0.02 0.01 0.02 0.02 0.02 0.03 0.04 0.05 0.05 0.05 0.05 0.04 0.03 0.03 0.03 0.03 0.03 0.04 0.04 0.03 0.02 0.02 0.02 0.01 0.01 0.01 0.00 0.00 0.00 0.00 0.00 0.01 0.01 0.01 0.01 0.01 0.01
0.02 0.02 0.02 0.02 0.02 0.02 0.02 0.03 0.04 0.06 0.05 0.04 0.04 0.03 0.03 0.03 0.03 0.04 0.05 0.05 0.04 0.03 0.03 0.03 0.02 0.03 0.03 0.02 0.01 0.00 0.00 0.00 0.01 0.01 0.01 0.01 0.01 0.01
0.03 0.03 0.01 0.01 0.02 0.02 0.02 0.02 0.03 0.05 0.07 0.06 0.04 0.04 0.04 0.03 0.03 0.03 0.03 0.03 0.03 0.03 0.04 0.04 0.04 0.04 0.03 0.02 0.02 0.01 0.01 0.01 0.01 0.01 0.01 0.02 0.02 0.01
0.04 0.03 0.03 0.02 0.02 0.02 0.02 0.03 0.03 0.04 0.05 0.06 0.06 0.06 0.06 0.06 0.04 0.04 0.04 0.03 0.03 0.03 0.03 0.04 0.04 0.04 0.02 0.02 0.01 0.01 0.01 0.01 0.01 0.01 0.01 0.02 0.02 0.02
0.04 0.03 0.03 0.02 0.02 0.02 0.02 0.03 0.04 0.04 0.04 0.05 0.06 0.06 0.06 0.05 0.05 0.04 0.04 0.03 0.02 0.02 0.03 0.04 0.04 0.03 0.03 0.03 0.01 0.01 0.01 0.01 0.01 0.02 0.01 0.01 0.02 0.02
0.02 0.02 0.02 0.01 0.02 0.02 0.02 0.03 0.04 0.05 0.05 0.05 0.05 0.06 0.05 0.03 0.03 0.04 0.04 0.04 0.03 0.03 0.03 0.04 0.04 0.03 0.04 0.03 0.02 0.01 0.01 0.02 0.03 0.03 0.02 0.02 0.02 0.02
0.01 0.01 0.01 0.01 0.02 0.02 0.03 0.04 0.05 0.07 0.07 0.06 0.05 0.05 0.04 0.03 0.03 0.03 0.03 0.03 0.03 0.03 0.02 0.04 0.05 0.05 0.05 0.03 0.03 0.02 0.03 0.03 0.03 0.04 0.05 0.04 0.03 0.02
0.03 0.03 0.02 0.02 0.02 0.02 0.03 0.04 0.05 0.06 0.06 0.06 0.05 0.04 0.03 0.03 0.03 0.03 0.03 0.03 0.03 0.03 0.03 0.04 0.05 0.05 0.05 0.04 0.04 0.03 0.03 0.03 0.04 0.04 0.04 0.05 0.04 0.03
0.04 0.05 0.04 0.03 0.03 0.03 0.03 0.03 0.04 0.05 0.05 0.05 0.05 0.04 0.04 0.04 0.04 0.04 0.04 0.04 0.04 0.03 0.03 0.04 0.05 0.05 0.05 0.05 0.05 0.04 0.03 0.03 0.04 0.04 0.04 0.05 0.05 0.04
0.05 0.07 0.07 0.05 0.04 0.04 0.04 0.04 0.05 0.05 0.06 0.06 0.06 0.06 0.06 0.05 0.04 0.04 0.03 0.03 0.04 0.03 0.03 0.03 0.05 0.06 0.06 0.06 0.06 0.06 0.05 0.04 0.04 0.04 0.04 0.04 0.06 0.06
0.07 0.08 0.09 0.06 0.04 0.04 0.04 0.04 0.04 0.05 0.05 0.06 0.06 0.06 0.05 0.04 0.04 0.03 0.02 0.02 0.03 0.03 0.02 0.02 0.03 0.04 0.04 0.04 0.04 0.04 0.05 0.04 0.05 0.05 0.05 0.05 0.05 0.05
0.06 0.07 0.09 0.07 0.05 0.04 0.04 0.04 0.04 0.04 0.05 0.06 0.06 0.06 0.05 0.05 0.04 0.03 0.02 0.02 0.03 0.03 0.03 0.03 0.04 0.03 0.03 0.03 0.03 0.03 0.03 0.04 0.04 0.04 0.05 0.05 0.04 0.04
0.04 0.05 0.07 0.07 0.06 0.05 0.04 0.03 0.02 0.03 0.03 0.04 0.05 0.05 0.05 0.04 0.04 0.04 0.03 0.02 0.03 0.03 0.03 0.03 0.04 0.03 0.03 0.03 0.02 0.01 0.01 0.02 0.04 0.04 0.04 0.04 0.04 0.04
0.02 0.02 0.03 0.03 0.04 0.04 0.04 0.03 0.03 0.02 0.02 0.03 0.04 0.04 0.04 0.03 0.03 0.03 0.03 0.02 0.03 0.03 0.03 0.04 0.03 0.02 0.02 0.02 0.02 0.01 0.01 0.01 0.02 0.03 0.03 0.03 0.03 0.02
0.01 0.01 0.01 0.02 0.02 0.02 0.02 0.03 0.02 0.02 0.02 0.02 0.03 0.03 0.03 0.02 0.02 0.02 0.02 0.02 0.02 0.02 0.01 0.02 0.02 0.02 0.02 0.02 0.02 0.01 0.01 0.01 0.01 0.02 0.02 0.02 0.03 0.03
0.01 0.00 0.00 0.00 0.01 0.01 0.01 0.01 0.02 0.02 0.02 0.02 0.02 0.02 0.02 0.02 0.02 0.02 0.03 0.02 0.02 0.02 0.01 0.02 0.02 0.02 0.02 0.01 0.01 0.01 0.01 0.01 0.01 0.01 0.01 0.01 0.01 0.02
0.00 0.00 0.00 0.00 0.01 0.01 0.01 0.01 0.01 0.01 0.01 0.02 0.02 0.02 0.02 0.02 0.02 0.02 0.02 0.02 0.02 0.02 0.02 0.02 0.01 0.01 0.01 0.01 0.01 0.02 0.02 0.01 0.01 0.01 0.01 0.01 0.01 0.01
MSLP
1011.80 1012.07 1012.37 1012.68 1012.96 1013.15 1013.24 1013.22 1013.07 1012.82 1012.50 1012.13 1011.74 1011.36 1011.00 1010.67 1010.38 1010.13 1009.91 1009.72 1009.58 1009.49 1009.45 1009.45 1009.49 1009.56 1009.64 1009.69 1009.70 1009.65 1009.53 1009.34 1009.09 1008.81 1008.52 1008.25 1007.99 1007.77
1011.52 1011.75 1012.02 1012.32 1012.59 1012.80 1012.93 1012.95 1012.87 1012.69 1012.43 1012.12 1011.78 1011.42 1011.07 1010.72 1010.40 1010.08 1009.79 1009.53 1009.32 1009.15 1009.05 1009.01 1009.05 1009.13 1009.24 1009.35 1009.44 1009.47 1009.43 1009.32 1009.13 1008.89 1008.61 1008.31 1008.02 1007.74
1011.28 1011.46 1011.69 1011.95 1012.21 1012.43 1012.58 1012.66 1012.64 1012.55 1012.37 1012.14 1011.87 1011.56 1011.23 1010.89 1010.53 1010.17 1009.82 1009.48 1009.18 1008.93 1008.76 1008.68 1008.68 1008.75 1008.88 1009.03 1009.18 1009.28 1009.31 1009.26 1009.12 1008.91 1008.64 1008.32 1008.00 1007.67
1011.14 1011.27 1011.45 1011.67 1011.90 1012.12 1012.29 1012.41 1012.46 1012.44 1012.35 1012.21 1012.01 1011.76 1011.47 1011.14 1010.78 1010.39 1009.98 1009.58 1009.21 1008.89 1008.65 1008.50 1008.45 1008.50 1008.62 1008.78 1008.95 1009.09 1009.17 1009.16 1009.06 1008.87 1008.60 1008.28 1007.93 1007.58
1011.15 1011.23 1011.37 1011.54 1011.73 1011.92 1012.10 1012.24 1012.34 1012.39 1012.38 1012.31 1012.18 1012.00 1011.76 1011.46 1011.11 1010.71 1010.28 1009.84 1009.41 1009.03 1008.73 1008.52 1008.41 1008.41 1008.49 1008.63 1008.79 1008.93 1009.02 1009.03 1008.95 1008.77 1008.50 1008.17 1007.81 1007.44
1011.29 1011.34 1011.43 1011.55 1011.70 1011.86 1012.02 1012.17 1012.29 1012.38 1012.42 1012.41 1012.35 1012.23 1012.05 1011.79 1011.48 1011.10 1010.67 1010.23 1009.78 1009.36 1009.01 1008.74 1008.57 1008.50 1008.51 1008.59 1008.70 1008.80 1008.87 1008.86 1008.77 1008.59 1008.33 1008.00 1007.63 1007.25
1011.50 1011.53 1011.58 1011.66 1011.76 1011.89 1012.02 1012.16 1012.28 1012.38 1012.45 1012.48 1012.47 1012.40 1012.27 1012.08 1011.81 1011.48 1011.10 1010.68 1010.25 1009.83 1009.45 1009.13 1008.89 1008.74 1008.66 1008.65 1008.68 1008.71 1008.71 1008.67 1008.55 1008.36 1008.09 1007.76 1007.40 1007.02
1011.70 1011.72 1011.75 1011.79 1011.86 1011.95 1012.05 1012.16 1012.26 1012.35 1012.43 1012.48 1012.49 1012.46 1012.39 1012.25 1012.06 1011.81 1011.50 1011.14 1010.75 1010.36 1009.97 1009.62 1009.32 1009.08 1008.91 1008.79 1008.70 1008.63 1008.55 1008.45 1008.29 1008.08 1007.80 1007.48 1007.13 1006.76
1011.80 1011.82 1011.84 1011.87 1011.92 1011.97 1012.04 1012.12 1012.20 1012.27 1012.33 1012.37 1012.39 1012.39 1012.36 1012.29 1012.17 1012.01 1011.79 1011.52 1011.21 1010.86 1010.50 1010.13 1009.79 1009.47 1009.19 1008.95 1008.74 1008.56 1008.39 1008.21 1008.01 1007.77 1007.50 1007.19 1006.85 1006.50
1011.76 1011.79 1011.82 1011.85 1011.89 1011.93 1011.98 1012.02 1012.07 1012.11 1012.14 1012.16 1012.18 1012.19 1012.19 1012.17 1012.13 1012.05 1011.93 1011.76 1011.54 1011.26 1010.93 1010.57 1010.19 1009.81 1009.44 1009.09 1008.78 1008.49 1008.23 1007.99 1007.74 1007.49 1007.22 1006.92 1006.61 1006.28
1011.59 1011.64 1011.68 1011.72 1011.77 1011.81 1011.84 1011.87 1011.89 1011.90 1011.90 1011.89 1011.89 1011.89 1011.91 1011.92 1011.94 1011.94 1011.91 1011.83 1011.70 1011.49 1011.21 1010.88 1010.48 1010.06 1009.63 1009.20 1008.80 1008.43 1008.10 1007.81 1007.54 1007.28 1007.02 1006.74 1006.45 1006.15
1011.36 1011.42 1011.48 1011.54 1011.59 1011.64 1011.68 1011.69 1011.69 1011.67 1011.64 1011.60 1011.57 1011.56 1011.57 1011.60 1011.65 1011.71 1011.74 1011.74 1011.68 1011.54 1011.32 1011.01 1010.64 1010.20 1009.73 1009.26 1008.81 1008.40 1008.03 1007.71 1007.43 1007.17 1006.93 1006.68 1006.41 1006.12
1011.14 1011.20 1011.27 1011.34 1011.40 1011.46 1011.51 1011.52 1011.51 1011.47 1011.41 1011.35 1011.28 1011.24 1011.23 1011.26 1011.32 1011.40 1011.47 1011.52 1011.52 1011.43 1011.26 1010.99 1010.64 1010.23 1009.76 1009.29 1008.82 1008.40 1008.03 1007.71 1007.44 1007.20 1006.97 1006.74 1006.49 1006.20
1010.99 1011.03 1011.09 1011.16 1011.24 1011.31 1011.35 1011.38 1011.36 1011.32 1011.24 1011.15 1011.06 1010.99 1010.96 1010.96 1011.01 1011.08 1011.16 1011.23 1011.26 1011.21 1011.08 1010.86 1010.55 1010.16 1009.74 1009.29 1008.85 1008.45 1008.10 1007.81 1007.56 1007.34 1007.13 1006.91 1006.64 1006.33
1010.92 1010.94 1010.97 1011.03 1011.10 1011.16 1011.22 1011.25 1011.24 1011.20 1011.13 1011.03 1010.92 1010.83 1010.77 1010.74 1010.76 1010.80 1010.87 1010.93 1010.96 1010.94 1010.83 1010.65 1010.39 1010.06 1009.68 1009.29 1008.91 1008.55 1008.25 1007.99 1007.76 1007.56 1007.35 1007.11 1006.83 1006.47
1010.90 1010.87 1010.87 1010.89 1010.94 1011.00 1011.06 1011.10 1011.12 1011.10 1011.04 1010.95 1010.85 1010.75 1010.66 1010.61 1010.59 1010.61 1010.64 1010.68 1010.69 1010.67 1010.58 1010.43 1010.21 1009.94 1009.63 1009.30 1008.98 1008.69 1008.43 1008.20 1008.00 1007.80 1007.57 1007.30 1006.96 1006.54
1010.83 1010.76 1010.71 1010.69 1010.72 1010.77 1010.83 1010.89 1010.93 1010.95 1010.93 1010.87 1010.80 1010.71 1010.63 1010.56 1010.51 1010.49 1010.49 1010.50 1010.49 1010.45 1010.37 1010.24 1010.07 1009.84 1009.59 1009.33 1009.07 1008.83 1008.61 1008.41 1008.21 1008.00 1007.74 1007.41 1007.00 1006.50
1010.63 1010.51 1010.42 1010.37 1010.36 1010.40 1010.47 1010.56 1010.64 1010.71 1010.75 1010.75 1010.72 1010.67 1010.61 1010.55 1010.50 1010.46 1010.43 1010.40 1010.37 1010.32 1010.23 1010.12 1009.97 1009.79 1009.59 1009.38 1009.17 1008.97 1008.78 1008.59 1008.38 1008.13 1007.82 1007.42 1006.93 1006.33
1010.25 1010.09 1009.97 1009.89 1009.86 1009.90 1009.98 1010.10 1010.23 1010.36 1010.47 1010.55 1010.59 1010.60 1010.58 1010.55 1010.50 1010.46 1010.41 1010.37 1010.31 1010.25 1010.16 1010.06 1009.93 1009.78 1009.62 1009.44 1009.27 1009.10 1008.91 1008.71 1008.48 1008.18 1007.81 1007.34 1006.76 1006.07
1009.67 1009.50 1009.36 1009.26 1009.23 1009.27 1009.38 1009.54 1009.72 1009.92 1010.10 1010.26 1010.38 1010.45 1010.50 1010.50 1010.49 1010.46 1010.41 1010.36 1010.30 1010.23 1010.14 1010.05 1009.93 1009.81 1009.67 1009.53 1009.37 1009.21 1009.02 1008.81 1008.54 1008.20 1007.77 1007.23 1006.58 1005.81
1008.96 1008.79 1008.65 1008.56 1008.53 1008.59 1008.72 1008.92 1009.16 1009.41 1009.67 1009.90 1010.09 1010.24 1010.34 1010.40 1010.42 1010.42 1010.39 1010.35 1010.29 1010.22 1010.15 1010.07 1009.97 1009.87 1009.75 1009.62 1009.48 1009.32 1009.13 1008.90 1008.60 1008.22 1007.75 1007.16 1006.45 1005.63
1008.22 1008.07 1007.94 1007.86 1007.86 1007.94 1008.10 1008.33 1008.61 1008.92 1009.23 1009.51 1009.77 1009.97 1010.12 1010.23 1010.29 1010.31 1010.31 1010.29 1010.25 1010.21 1010.16 1010.09 1010.02 1009.94 1009.85 1009.74 1009.61 1009.45 1009.26 1009.01 1008.69 1008.30 1007.80 1007.19 1006.46 1005.62
1007.54 1007.42 1007.32 1007.28 1007.30 1007.41 1007.59 1007.84 1008.15 1008.48 1008.82 1009.14 1009.43 1009.67 1009.86 1010.00 1010.09 1010.15 1010.17 1010.18 1010.18 1010.16 1010.14 1010.11 1010.07 1010.02 1009.96 1009.87 1009.76 1009.61 1009.42 1009.17 1008.85 1008.45 1007.95 1007.34 1006.62 1005.80
Thickness
5673 5671 5670 5669 5669 5668 5666 5663 5658 5655 5657 5662 5664 5666 5665 5663 5661 5659 5657 5655 5653 5651 5649 5648 5646 5644 5642 5641 5639 5638 5637 5636 5635 5635 5635 5635 5635 5635
5668 5667 5665 5665 5664 5664 5663 5661 5659 5655 5653 5657 5658 5661 5660 5659 5657 5655 5653 5651 5649 5646 5645 5643 5641 5639 5637 5635 5633 5631 5630 5629 5628 5628 5629 5628 5629 5629
5664 5663 5661 5661 5659 5660 5659 5658 5656 5654 5650 5652 5654 5655 5654 5653 5652 5650 5649 5647 5644 5643 5641 5638 5636 5634 5631 5629 5627 5625 5624 5622 5622 5622 5622 5622 5622 5622
5661 5659 5657 5657 5655 5654 5653 5653 5652 5651 5648 5645 5647 5649 5649 5649 5648 5646 5645 5644 5641 5640 5637 5634 5632 5629 5626 5624 5622 5620 5618 5617 5616 5615 5615 5615 5614 5614
5657 5655 5654 5652 5650 5649 5649 5648 5648 5648 5646 5643 5643 5645 5644 5644 5642 5641 5641 5638 5637 5635 5633 5630 5627 5624 5621 5619 5617 5615 5613 5612 5610 5609 5608 5607 5607 5607
5655 5653 5652 5649 5647 5646 5645 5644 5643 5642 5641 5640 5639 5639 5638 5638 5636 5633 5631 5632 5631 5630 5628 5625 5623 5620 5617 5614 5612 5610 5607 5605 5604 5602 5601 5601 5600 5599
5651 5650 5649 5647 5645 5643 5643 5640 5639 5637 5636 5635 5633 5633 5631 5629 5627 5626 5624 5624 5624 5624 5620 5619 5617 5614 5611 5609 5606 5604 5602 5599 5597 5596 5595 5594 5593 5592
5647 5647 5646 5644 5643 5641 5640 5638 5636 5634 5632 5629 5628 5626 5625 5623 5621 5620 5617 5615 5613 5616 5613 5612 5611 5609 5607 5604 5601 5599 5596 5593 5591 5589 5588 5587 5586 5585
5646 5644 5644 5644 5641 5639 5638 5636 5635 5633 5630 5627 5623 5622 5620 5619 5616 5614 5612 5609 5607 5609 5608 5605 5605 5603 5602 5600 5597 5594 5591 5588 5586 5584 5582 5580 5579 5577
5645 5643 5642 5640 5639 5636 5635 5634 5632 5631 5629 5626 5623 5621 5619 5616 5614 5611 5607 5606 5607 5606 5603 5598 5598 5596 5597 5594 5591 5588 5585 5582 5580 5578 5576 5574 5572 5570
5644 5643 5641 5638 5635 5632 5631 5629 5628 5627 5627 5625 5623 5620 5617 5615 5611 5606 5603 5600 5599 5599 5599 5594 5592 5590 5589 5587 5585 5582 5579 5577 5574 5572 5570 5568 5566 5564
5642 5641 5638 5635 5632 5629 5627 5625 5623 5623 5622 5621 5619 5618 5615 5613 5610 5604 5601 5596 5594 5592 5594 5590 5587 5584 5581 5581 5578 5575 5573 5570 5568 5567 5565 5563 5561 5558
5640 5638 5636 5632 5629 5626 5624 5622 5621 5619 5618 5617 5617 5616 5614 5611 5608 5604 5600 5595 5591 5589 5590 5586 5582 5579 5574 5572 5572 5569 5567 5566 5563 5562 5560 5559 5557 5554
5635 5635 5633 5630 5627 5624 5622 5621 5619 5616 5615 5614 5613 5612 5611 5609 5606 5603 5600 5596 5593 5589 5587 5583 5578 5575 5570 5567 5565 5564 5563 5561 5559 5558 5556 5555 5553 5551
5633 5631 5629 5626 5624 5622 5621 5619 5616 5614 5613 5611 5610 5609 5609 5607 5605 5601 5598 5595 5592 5589 5585 5581 5577 5573 5569 5564 5562 5560 5558 5557 5556 5554 5553 5551 5549 5547
5629 5628 5627 5625 5623 5621 5620 5618 5615 5614 5612 5610 5609 5608 5607 5605 5601 5598 5595 5591 5587 5584 5582 5579 5575 5571 5566 5564 5560 5557 5556 5554 5552 5551 5549 5547 5546 5544
5627 5627 5626 5625 5624 5622 5621 5619 5618 5615 5611 5609 5607 5605 5603 5600 5598 5596 5592 5587 5582 5579 5576 5574 5572 5568 5564 5560 5557 5555 5553 5551 5549 5548 5545 5543 5541 5540
5625 5625 5625 5625 5624 5623 5621 5619 5618 5615 5612 5609 5606 5603 5600 5597 5594 5592 5588 5584 5579 5576 5573 5571 5568 5564 5560 5558 5554 5551 5550 5548 5547 5545 5543 5539 5537 5535
5623 5624 5624 5624 5623 5622 5621 5620 5617 5614 5611 5608 5604 5601 5598 5594 5591 5587 5584 5580 5576 5573 5571 5568 5565 5561 5556 5553 5553 5549 5547 5546 5544 5541 5539 5536 5533 5530
5624 5624 5624 5624 5623 5621 5620 5618 5615 5612 5609 5605 5602 5598 5595 5591 5588 5585 5581 5578 5574 5571 5568 5565 5562 5559 5554 5551 5549 5547 5546 5544 5542 5539 5537 5534 5530 5527
5627 5625 5625 5623 5622 5620 5618 5616 5613 5609 5606 5602 5598 5595 5593 5589 5586 5583 5580 5576 5572 5569 5565 5563 5562 5559 5556 5551 5547 5545 5543 5542 5540 5536 5534 5531 5528 5525
5627 5626 5625 5623 5620 5618 5616 5613 5610 5607 5603 5600 5597 5593 5590 5587 5584 5581 5578 5574 5571 5568 5565 5563 5561 5558 5554 5549 5545 5542 5540 5539 5537 5534 5531 5529 5525 5522
5626 5624 5623 5621 5619 5616 5614 5611 5607 5604 5601 5597 5594 5591 5588 5585 5582 5579 5576 5573 5571 5567 5564 5561 5559 5556 5552 5549 5545 5542 5539 5536 5534 5531 5529 5527 5524 5521